Location: Canet
(43.3261°N, 5.3723°E)
Time: 19:02:04
(UTC+00:00)

H-2A R/B - Pass Details

Date: 24 January 2021
Orbit: 734 x 836 km, 98.2° (Epoch: 02 March)

Event Time Altitude Azimuth Distance (km) Brightness Sun altitude
Rises 19:24:35 0° 199° (SSW) 3,175 5.4 -29.8°
Reaches altitude 10° 19:27:13 10° 212° (SSW) 2,269 4.8 -30.3°
Maximum altitude 19:31:17 25° 267° (W) 1,519 4.1 -31.0°
Drops below altitude 10° 19:35:27 10° 321° (NW) 2,332 4.9 -31.8°
Sets 19:38:13 0° 335° (NNW) 3,284 5.6 -32.3°
